Kiripotib Landing Site

Jump to: basic info | weather | comments

Related pages: nearby airports | nearby navaids

Basic information (top)

Location: lon -23.328300, lat 17.946400, elev 4,475 ft / 1,364 m msl
Status: small_airport

Weather (top)

Current conditions for Hosea Kutako International Airport 57nm (106km) NNW (rec'd 2014/11/28 11:00Z):

FYWH 281100Z 26004KT 9999 FEW070 28/M10 Q1021 NOSIG

Airport forecast for Hosea Kutako International Airport 57nm (106km) NNW (rec'd 2014/11/23 12:00Z):

TAF FYWH 231000Z 2312/2418 33012KT CAVOK 
      BECMG 2312/2314 30007KT 9999 SCT040 
      BECMG 2317/2318 28006KT CAVOK 

Latest comments (top)

More details: Once can also land in the nearby salt ... [read]

Kiripotib Landing Strip Details: GPS location: S 23° 19' 50'' E 17° ... [read]

More... (top)

See also NOTAMs and nearby airports and navaids, or visit the Kiripotib Landing Site page at the main OurAirports website..